• In Netherlands
  • List of Countries
  • For 7 days
  • Water Temperature
  • Satellite Maps
  • Weather Map
  • Weather Widgets
  • user-avatar
    Login

    Hourly Weather Rawson

    Today, 19 November, Sunday

    Time Temperature Precipitation Wind Pressure Humidity
    00:00 +9°C° 0.1 mm 13 mps 751 mmHg 63%
    01:00 +8°C° 0.1 mm 12 mps 753 mmHg 60%
    02:00 +7°C° 0.1 mm 12 mps 754 mmHg 57%
    03:00 +7°C° 0 mm 11 mps 754 mmHg 50%
    04:00 +7°C° 0 mm 11 mps 755 mmHg 43%
    05:00 +6°C° 0 mm 10 mps 755 mmHg 36%
    06:00 +7°C° 0 mm 11 mps 756 mmHg 33%
    07:00 +8°C° 0 mm 11 mps 756 mmHg 29%
    08:00 +9°C° 0 mm 12 mps 756 mmHg 26%
    09:00 +10°C° 0 mm 12 mps 757 mmHg 23%
    10:00 +12°C° 0 mm 11 mps 757 mmHg 21%
    11:00 +13°C° 0 mm 11 mps 757 mmHg 18%
    12:00 +14°C° 0 mm 10 mps 756 mmHg 17%
    13:00 +16°C° 0 mm 9 mps 756 mmHg 16%
    14:00 +17°C° 0 mm 8 mps 756 mmHg 15%
    15:00 +17°C° 0 mm 7 mps 755 mmHg 15%
    16:00 +17°C° 0 mm 6 mps 755 mmHg 15%
    17:00 +17°C° 0 mm 5 mps 754 mmHg 15%
    18:00 +16°C° 0 mm 6 mps 754 mmHg 20%
    19:00 +15°C° 0 mm 6 mps 753 mmHg 26%
    20:00 +14°C° 0 mm 7 mps 753 mmHg 31%
    21:00 +13°C° 0 mm 8 mps 753 mmHg 30%
    22:00 +13°C° 0 mm 8 mps 753 mmHg 30%
    23:00 +15°C° 0 mm 9 mps 753 mmHg 29%

    Tomorrow, 20 November, Monday

    Time Temperature Precipitation Wind Pressure Humidity
    00:00 +13°C° 0 mm 9 mps 754 mmHg 29%
    01:00 +13°C° 0 mm 9 mps 754 mmHg 29%
    02:00 +13°C° 0 mm 9 mps 754 mmHg 29%
    03:00 +12°C° 0 mm 8 mps 754 mmHg 30%
    04:00 +11°C° 0 mm 8 mps 754 mmHg 32%
    05:00 +10°C° 0 mm 8 mps 755 mmHg 33%
    06:00 +11°C° 0 mm 9 mps 755 mmHg 32%
    07:00 +12°C° 0 mm 10 mps 755 mmHg 31%
    08:00 +12°C° 0 mm 11 mps 756 mmHg 30%
    09:00 +14°C° 0 mm 11 mps 756 mmHg 28%
    10:00 +16°C° 0 mm 11 mps 757 mmHg 25%
    11:00 +17°C° 0 mm 11 mps 757 mmHg 23%
    12:00 +17°C° 0 mm 12 mps 757 mmHg 24%
    13:00 +17°C° 0 mm 12 mps 757 mmHg 24%
    14:00 +18°C° 0 mm 12 mps 758 mmHg 25%
    15:00 +17°C° 0 mm 11 mps 758 mmHg 25%
    16:00 +17°C° 0 mm 11 mps 758 mmHg 25%
    17:00 +17°C° 0 mm 10 mps 759 mmHg 25%
    18:00 +16°C° 0 mm 8 mps 759 mmHg 28%
    19:00 +15°C° 0 mm 7 mps 759 mmHg 31%
    20:00 +14°C° 0 mm 6 mps 760 mmHg 33%
    21:00 +14°C° 0 mm 4 mps 760 mmHg 36%
    22:00 +13°C° 0 mm 3 mps 760 mmHg 40%
    23:00 +13°C° 0 mm 2 mps 760 mmHg 43%

    Day after tomorrow, 21 November, Tuesday

    Time Temperature Precipitation Wind Pressure Humidity
    00:00 +12°C° 0 mm 3 mps 760 mmHg 44%
    01:00 +12°C° 0 mm 4 mps 760 mmHg 45%
    02:00 +12°C° 0 mm 5 mps 760 mmHg 46%
    03:00 +12°C° 0 mm 4 mps 760 mmHg 48%
    04:00 +12°C° 0 mm 4 mps 760 mmHg 50%
    05:00 +12°C° 0 mm 3 mps 760 mmHg 52%
    06:00 +13°C° 0 mm 3 mps 760 mmHg 47%
    07:00 +15°C° 0 mm 4 mps 760 mmHg 42%
    08:00 +17°C° 0 mm 4 mps 760 mmHg 37%
    09:00 +19°C° 0 mm 4 mps 759 mmHg 34%
    10:00 +20°C° 0 mm 4 mps 759 mmHg 31%
    11:00 +21°C° 0 mm 5 mps 759 mmHg 27%
    12:00 +22°C° 0 mm 5 mps 758 mmHg 25%
    13:00 +23°C° 0 mm 5 mps 758 mmHg 23%
    14:00 +25°C° 0 mm 5 mps 757 mmHg 20%
    15:00 +25°C° 0 mm 5 mps 757 mmHg 21%
    16:00 +24°C° 0 mm 6 mps 757 mmHg 22%
    17:00 +24°C° 0 mm 6 mps 756 mmHg 22%
    18:00 +22°C° 0 mm 6 mps 756 mmHg 28%
    19:00 +20°C° 0 mm 5 mps 756 mmHg 34%
    20:00 +17°C° 0 mm 5 mps 756 mmHg 39%
    21:00 +17°C° 0 mm 5 mps 756 mmHg 39%
    22:00 +17°C° 0 mm 5 mps 756 mmHg 40%
    23:00 +17°C° 0 mm 5 mps 756 mmHg 40%

    22 November, Wednesday

    Time Temperature Precipitation Wind Pressure Humidity
    00:00 +17°C° 0 mm 5 mps 756 mmHg 38%
    01:00 +19°C° 0 mm 6 mps 755 mmHg 36%
    02:00 +18°C° 0 mm 7 mps 755 mmHg 35%
    03:00 +18°C° 0 mm 8 mps 755 mmHg 38%
    04:00 +17°C° 0 mm 9 mps 755 mmHg 41%
    05:00 +16°C° 0 mm 10 mps 756 mmHg 45%
    06:00 +16°C° 0.2 mm 9 mps 756 mmHg 45%
    07:00 +16°C° 0.2 mm 9 mps 757 mmHg 45%
    08:00 +16°C° 0.2 mm 9 mps 757 mmHg 45%
    09:00 +17°C° 0 mm 9 mps 757 mmHg 42%
    10:00 +18°C° 0 mm 9 mps 757 mmHg 39%
    11:00 +19°C° 0 mm 9 mps 757 mmHg 37%
    12:00 +20°C° 0 mm 8 mps 757 mmHg 35%
    13:00 +21°C° 0 mm 6 mps 757 mmHg 33%
    14:00 +21°C° 0 mm 5 mps 757 mmHg 31%
    15:00 +21°C° 0 mm 4 mps 756 mmHg 32%
    16:00 +21°C° 0 mm 4 mps 756 mmHg 32%
    17:00 +21°C° 0 mm 4 mps 756 mmHg 33%
    18:00 +19°C° 0 mm 4 mps 755 mmHg 37%
    19:00 +17°C° 0 mm 5 mps 755 mmHg 41%
    20:00 +16°C° 0 mm 6 mps 754 mmHg 45%
    21:00 +16°C° 0 mm 7 mps 754 mmHg 47%
    22:00 +16°C° 0 mm 8 mps 753 mmHg 49%
    23:00 +15°C° 0 mm 9 mps 753 mmHg 51%

    23 November, Thursday

    Time Temperature Precipitation Wind Pressure Humidity
    00:00 +16°C° 0 mm 9 mps 753 mmHg 46%
    01:00 +17°C° 0 mm 9 mps 752 mmHg 42%
    02:00 +17°C° 0 mm 10 mps 752 mmHg 37%
    03:00 +17°C° 0 mm 9 mps 752 mmHg 38%
    04:00 +16°C° 0 mm 8 mps 752 mmHg 39%
    05:00 +16°C° 0 mm 7 mps 752 mmHg 40%
    06:00 +16°C° 0 mm 8 mps 753 mmHg 37%
    07:00 +17°C° 0 mm 9 mps 753 mmHg 34%
    08:00 +18°C° 0 mm 11 mps 754 mmHg 31%
    09:00 +18°C° 0 mm 12 mps 754 mmHg 32%
    10:00 +17°C° 0 mm 13 mps 755 mmHg 32%
    11:00 +17°C° 0 mm 14 mps 756 mmHg 32%
    12:00 +17°C° 0 mm 13 mps 756 mmHg 30%
    13:00 +17°C° 0 mm 12 mps 757 mmHg 28%
    14:00 +17°C° 0 mm 12 mps 758 mmHg 26%
    15:00 +17°C° 0 mm 11 mps 758 mmHg 25%
    16:00 +17°C° 0 mm 11 mps 758 mmHg 24%
    17:00 +17°C° 0 mm 10 mps 759 mmHg 22%
    18:00 +16°C° 0 mm 9 mps 759 mmHg 25%
    19:00 +13°C° 0 mm 9 mps 759 mmHg 27%
    20:00 +12°C° 0 mm 8 mps 760 mmHg 29%
    21:00 +12°C° 0 mm 7 mps 760 mmHg 33%
    22:00 +12°C° 0 mm 5 mps 759 mmHg 36%
    23:00 +11°C° 0 mm 4 mps 759 mmHg 40%

    24 November, Friday

    Time Temperature Precipitation Wind Pressure Humidity
    00:00 +10°C° 0 mm 5 mps 759 mmHg 41%
    01:00 +10°C° 0 mm 6 mps 758 mmHg 43%
    02:00 +10°C° 0 mm 6 mps 758 mmHg 44%
    03:00 +10°C° 0 mm 7 mps 758 mmHg 46%
    04:00 +10°C° 0 mm 8 mps 757 mmHg 47%
    05:00 +10°C° 0 mm 9 mps 757 mmHg 49%
    06:00 +13°C° 0 mm 9 mps 756 mmHg 41%
    07:00 +16°C° 0 mm 9 mps 756 mmHg 32%
    08:00 +19°C° 0 mm 9 mps 755 mmHg 24%
    09:00 +21°C° 0 mm 9 mps 755 mmHg 21%
    10:00 +22°C° 0 mm 8 mps 755 mmHg 19%
    11:00 +23°C° 0 mm 8 mps 754 mmHg 16%
    12:00 +26°C° 0 mm 7 mps 754 mmHg 15%
    13:00 +27°C° 0 mm 6 mps 753 mmHg 14%
    14:00 +28°C° 0 mm 5 mps 753 mmHg 13%
    15:00 +28°C° 0 mm 5 mps 753 mmHg 14%
    16:00 +27°C° 0 mm 6 mps 752 mmHg 16%
    17:00 +27°C° 0 mm 6 mps 752 mmHg 17%
    18:00 +24°C° 0 mm 6 mps 752 mmHg 21%
    19:00 +22°C° 0 mm 6 mps 752 mmHg 25%
    20:00 +21°C° 0 mm 6 mps 752 mmHg 29%
    21:00 +20°C° 0 mm 6 mps 753 mmHg 31%
    22:00 +20°C° 0 mm 5 mps 753 mmHg 33%
    23:00 +20°C° 0 mm 4 mps 753 mmHg 36%
    Show more